CW8896 Weather Reports


time (UTC)temp
C
wind
direction
speed
KPH
gust
KPH
rain 1hr
cm
rain 24hr
cm
rain mn
cm
humidity
%
barometer
mb
20260506185004 15 200 0.0 3.2 0.00 0.71 0.25 63 1010.0
20260506184003 16 177 0.0 8.0 0.00 0.79 0.25 63 1009.9
20260506181004 16 327 0.0 4.8 0.00 0.79 0.25 61 1009.5
20260506180005 17 299 1.6 9.7 0.00 0.79 0.25 59 1009.3
20260506175004 17 307 3.2 14.5 0.00 0.79 0.25 57 1009.2
20260506174004 17 324 1.6 11.3 0.00 0.79 0.25 56 1009.0
20260506173004 18 323 1.6 11.3 0.00 0.79 0.25 55 1009.0
20260506172003 18 312 1.6 9.7 0.00 0.79 0.25 54 1008.8
20260506171003 18 307 3.2 12.9 0.00 0.79 0.25 53 1008.8
20260506170005 19 319 4.8 16.1 0.00 0.79 0.25 52 1008.8
20260506165003 20 308 4.8 12.9 0.00 0.79 0.25 52 1008.7
20260506164004 20 317 3.2 9.7 0.00 0.79 0.25 49 1008.6
20260506163004 20 309 4.8 14.5 0.00 0.79 0.25 49 1008.6
20260506162003 20 308 4.8 11.3 0.00 0.79 0.25 49 1008.3
20260506161004 20 319 1.6 12.9 0.00 0.81 0.25 49 1008.3
20260506160004 21 312 3.2 12.9 0.00 0.81 0.25 46 1008.4
20260506155004 21 310 3.2 12.9 0.00 0.81 0.25 46 1008.3
20260506154004 21 318 3.2 17.7 0.00 0.81 0.25 46 1008.4
20260506153004 21 312 3.2 14.5 0.00 0.81 0.25 46 1008.3
20260506152003 21 312 3.2 16.1 0.00 0.81 0.25 48 1008.4
20260506151004 21 310 1.6 9.7 0.00 0.81 0.25 48 1008.4
20260506150004 21 5 1.6 9.7 0.00 0.81 0.25 47 1008.3
20260506145004 22 330 1.6 11.3 0.00 0.81 0.25 42 1008.4
20260506144003 22 309 1.6 8.0 0.00 0.81 0.25 46 1008.4
20260506143005 22 342 1.6 6.4 0.00 0.81 0.25 45 1008.5
20260506142004 22 207 1.6 6.4 0.00 0.81 0.25 45 1008.5
20260506140005 21 307 1.6 16.1 0.00 0.81 0.25 48 1008.6
20260506135004 22 297 1.6 14.5 0.00 0.81 0.25 46 1008.8
20260506134004 22 301 1.6 14.5 0.00 0.81 0.25 41 1008.9
20260506133004 22 297 1.6 8.0 0.00 0.81 0.25 46 1008.8
20260506132005 21 301 1.6 6.4 0.00 0.81 0.25 44 1008.8
20260506131003 21 319 3.2 16.1 0.00 0.81 0.25 46 1008.9
20260506130005 20 317 3.2 14.5 0.00 0.81 0.25 52 1008.9
20260506124004 22 248 1.6 9.7 0.00 0.81 0.25 46 1009.0
20260506123004 21 300 1.6 11.3 0.00 0.81 0.25 49 1009.1
20260506122004 21 331 1.6 6.4 0.00 0.81 0.25 50 1009.2
20260506121003 20 312 1.6 8.0 0.00 0.81 0.25 52 1009.2
20260506115004 21 321 3.2 16.1 0.00 0.81 0.25 49 1009.2
20260506113004 20 311 3.2 11.3 0.00 0.81 0.25 53 1009.3
20260506112004 21 314 1.6 9.7 0.00 0.81 0.25 51 1009.3
20260506110004 19 321 3.2 11.3 0.00 0.81 0.25 55 1009.4
20260506105004 19 322 3.2 12.9 0.00 0.81 0.25 53 1009.6
20260506104004 18 311 3.2 9.7 0.00 0.81 0.25 56 1009.7
20260506103004 19 315 4.8 12.9 0.00 0.81 0.25 53 1009.8
20260506102004 19 310 3.2 9.7 0.00 0.81 0.25 56 1009.6
20260506101003 19 315 3.2 14.5 0.00 0.81 0.25 59 1009.6
20260506100004 18 309 3.2 17.7 0.00 0.81 0.25 59 1009.7
20260506095003 18 330 4.8 20.9 0.00 0.81 0.25 62 1009.7
20260506093004 18 315 3.2 19.3 0.00 0.81 0.25 62 1009.4
20260506092003 18 313 4.8 16.1 0.00 0.81 0.25 62 1009.5
20260506090005 18 299 1.6 8.0 0.00 0.81 0.25 64 1009.4
20260506085003 18 301 1.6 9.7 0.00 0.81 0.25 66 1009.5
20260506084004 17 314 1.6 9.7 0.00 0.81 0.25 67 1009.6
20260506083004 17 347 0.0 4.8 0.00 0.81 0.25 71 1009.5
20260506072004 16 13 0.0 6.4 0.00 0.81 0.25 78 1009.3
20260506071003 16 82 0.0 3.2 0.00 0.81 0.25 79 1009.3
20260506062003 14 45 0.0 1.6 0.00 0.81 0.25 87 1008.9
20260506051004 9 0 0.0 0.0 0.00 0.81 0.25 95 1008.3
20260506045004 9 322 0.0 1.6 0.00 0.81 0.25 95 1008.0
20260506044003 8 0 0.0 0.0 0.00 0.81 0.25 95 1008.0
20260506041004 9 336 0.0 1.6 0.00 0.81 0.25 95 1008.0
20260506040004 9 0 0.0 0.0 0.00 0.81 0.25 95 1008.0
20260506035003 9 0 0.0 0.0 0.00 0.81 0.25 95 1008.0
20260506034004 9 331 0.0 1.6 0.00 0.81 0.25 95 1007.9
20260506033005 9 0 0.0 0.0 0.00 0.81 0.25 95 1008.0
20260506032004 9 320 0.0 3.2 0.00 0.81 0.25 95 1008.1
20260506031003 9 0 0.0 0.0 0.00 0.81 0.25 95 1008.1
20260506030006 9 0 0.0 0.0 0.00 0.84 0.25 95 1008.1
20260506025003 9 0 0.0 0.0 0.00 0.89 0.25 95 1008.0
20260506024004 9 0 0.0 0.0 0.00 0.99 0.25 95 1008.0
20260506023004 10 0 0.0 0.0 0.00 1.02 0.25 95 1008.1
20260506022004 10 0 0.0 0.0 0.00 1.04 0.25 95 1008.0
20260506020004 10 0 0.0 0.0 0.00 1.07 0.25 95 1008.0
20260506015004 10 0 0.0 0.0 0.00 1.07 0.25 95 1008.2
20260506014004 10 0 0.0 0.0 0.00 1.09 0.25 95 1008.2
20260506013005 9 0 0.0 0.0 0.00 1.09 0.25 95 1008.3
20260506012003 9 0 0.0 0.0 0.00 1.09 0.25 95 1008.2
20260506011004 10 0 0.0 0.0 0.00 1.09 0.25 94 1008.1
20260506010004 10 302 0.0 1.6 0.00 1.09 0.25 94 1008.3
20260506005004 10 0 0.0 0.0 0.00 1.09 0.25 94 1008.2
20260506004004 10 0 0.0 0.0 0.00 1.09 0.25 94 1008.2
20260506003004 10 0 0.0 0.0 0.00 1.12 0.25 94 1008.2
20260506002003 10 0 0.0 0.0 0.00 1.12 0.25 94 1008.3
20260506000004 10 323 0.0 1.6 0.00 1.12 0.25 94 1008.8
20260505235004 11 350 0.0 3.2 0.03 1.12 0.25 94 1008.6
20260505234003 11 309 0.0 1.6 0.03 1.12 0.25 94 1009.0
20260505233005 11 272 0.0 1.6 0.05 1.12 0.25 94 1009.1
20260505232003 11 293 0.0 1.6 0.08 1.12 0.25 94 1009.0
20260505230004 11 330 0.0 1.6 0.25 1.12 0.25 94 1009.1
20260505225004 11 10 0.0 3.2 0.30 1.09 0.23 94 1008.9
20260505224004 11 310 0.0 3.2 0.36 1.09 0.23 94 1009.5
20260505223005 11 226 0.0 3.2 0.38 1.09 0.23 93 1009.9
20260505222003 11 0 0.0 0.0 0.38 1.07 0.18 93 1010.1
20260505221003 11 0 0.0 0.0 0.33 0.99 0.10 93 1010.2
20260505215003 11 0 0.0 0.0 0.18 0.89 0.86 92 1010.1
20260505214004 11 302 0.0 1.6 0.15 0.86 0.79 92 1010.1
20260505213004 11 297 0.0 3.2 0.13 1.07 0.76 91 1010.1
20260505211003 11 317 1.6 11.3 0.10 1.12 0.71 91 1009.9
20260505210004 11 301 1.6 6.4 0.15 1.12 0.71 91 1010.0
20260505205004 11 308 1.6 6.4 0.18 1.09 0.69 91 1010.1
20260505204005 11 306 1.6 8.0 0.18 1.09 0.66 91 1010.1
20260505203004 11 311 1.6 4.8 0.18 1.09 0.64 91 1009.8
20260505202004 12 319 1.6 4.8 0.15 1.07 0.61 90 1009.9
20260505201003 12 310 1.6 3.2 0.13 1.02 0.58 89 1010.0
20260505200005 12 317 1.6 8.0 0.08 1.04 0.53 88 1010.0
20260505194004 13 317 3.2 9.7 0.08 1.14 0.48 85 1009.7
20260505193004 13 313 3.2 11.3 0.05 1.12 0.46 86 1009.7
20260505192004 14 327 0.0 3.2 0.05 1.17 0.46 89 1009.4
20260505190004 15 0 0.0 0.0 0.05 1.24 0.46 89 1009.1